Location: Leeds
(37.2390°N, 113.3580°W)
Time: 23:47:19
(UTC-07:00)

ISS - All Passes

Search period start: 02 December 2016 00:00
Search period end: 12 December 2016 00:00
Orbit: 401 x 410 km, 51.6° (Epoch: 03 December)

Date Brightness Start Highest point End Pass type
(mag) Time Alt. Az. Time Alt. Az. Time Alt. Az.
02 Dec - 01:27:08 10° NW 01:30:25 65° SW 01:33:40 10° SE night (unlit)
02 Dec - 16:31:52 10° SE 16:32:44 11° SE 16:33:35 10° ESE daylight
02 Dec - 18:05:33 10° WSW 18:08:49 64° NW 18:12:06 10° NE visible
02 Dec - 19:44:21 10° NW 19:45:51 12° NNW 19:47:22 10° N visible
02 Dec - 23:00:03 10° N 23:01:28 12° NNE 23:02:53 10° NE night (unlit)
03 Dec - 00:35:15 10° NW 00:38:33 60° NE 00:41:48 10° ESE night (unlit)
03 Dec - 02:13:24 10° WSW 02:14:39 12° SW 02:15:53 10° SSW night (unlit)
03 Dec - 17:13:42 10° SW 17:16:56 60° SE 17:20:12 10° ENE daylight
03 Dec - 18:51:21 10° WNW 18:53:42 18° NNW 18:56:03 10° NNE visible
03 Dec - 23:43:32 10° NNW 23:46:34 32° NNE 23:49:35 10° E night (unlit)
04 Dec - 01:20:16 10° WNW 01:22:57 23° SW 01:25:38 10° S night (unlit)
04 Dec - 16:22:16 10° SSW 16:25:08 28° SE 16:28:01 10° ENE daylight
04 Dec - 17:58:43 10° W 18:01:36 27° NNW 18:04:30 10° NNE visible
04 Dec - 22:51:57 10° NNW 22:54:30 20° NNE 22:57:02 10° ENE night (unlit)
05 Dec - 00:27:57 10° WNW 00:31:10 48° SW 00:34:21 10° SSE night (unlit)
05 Dec - 15:31:33 10° SSE 15:33:24 14° SE 15:35:15 10° E daylight
05 Dec - 17:06:23 10° WSW 17:09:35 49° NW 17:12:48 10° NE daylight
05 Dec - 18:45:43 10° NW 18:46:44 11° NNW 18:47:45 10° N visible
05 Dec - 22:00:31 10° N 22:02:20 14° NNE 22:04:08 10° NE night (unlit)
05 Dec - 23:35:58 10° NW 23:39:17 80° NE 23:42:35 10° SE night (unlit)
06 Dec - 16:14:22 10° SW 16:17:38 82° SE 16:20:57 10° NE daylight
06 Dec - 17:52:27 10° WNW 17:54:30 15° NNW 17:56:34 10° NNE visible
06 Dec - 21:09:43 10° N 21:10:05 10° NNE 21:10:27 10° NNE night (unlit)
06 Dec - 22:44:09 10° NW 22:47:18 40° NE 22:50:27 10° ESE night (unlit)
07 Dec - 00:21:16 10° W 00:23:35 18° SW 00:25:53 10° S night (unlit)
07 Dec - 15:22:42 10° SSW 15:25:46 37° SE 15:28:50 10° ENE daylight
07 Dec - 16:59:39 10° W 17:02:20 23° NNW 17:05:03 10° NNE daylight
07 Dec - 21:52:28 10° NNW 21:55:14 24° NNE 21:57:59 10° E night (unlit)
07 Dec - 23:28:44 10° WNW 23:31:48 35° SW 23:34:50 10° SSE night (unlit)
08 Dec - 14:31:36 10° S 14:33:57 19° SE 14:36:20 10° E daylight
08 Dec - 16:07:09 10° WSW 16:10:15 38° NW 16:13:22 10° NE daylight
08 Dec - 21:00:56 10° NNW 21:03:04 16° NNE 21:05:11 10° ENE night (unlit)
08 Dec - 22:36:36 10° NW 22:39:54 77° SW 22:43:12 10° SE night (unlit)
09 Dec - 15:14:58 10° SW 15:18:14 75° NW 15:21:32 10° NE daylight
09 Dec - 16:53:30 10° NW 16:55:13 13° NNW 16:56:55 10° N daylight
09 Dec - 20:09:40 10° N 20:10:48 11° NNE 20:11:56 10° NE night (unlit)
09 Dec - 21:44:40 10° NW 21:47:55 51° NE 21:51:09 10° ESE night (unlit)
09 Dec - 23:22:20 10° W 23:24:05 14° SW 23:25:49 10° SSW night (unlit)
10 Dec - 14:23:07 10° SSW 14:26:17 50° SE 14:29:29 10° ENE daylight
10 Dec - 16:00:31 10° WNW 16:02:59 19° NNW 16:05:27 10° NNE daylight
10 Dec - 20:52:54 10° NNW 20:55:51 28° NNE 20:58:46 10° E night (unlit)
10 Dec - 22:29:27 10° WNW 22:32:17 27° SW 22:35:07 10° SSE night (unlit)
11 Dec - 13:31:43 10° S 13:34:25 24° SE 13:37:09 10° ENE daylight
11 Dec - 15:07:52 10° W 15:10:49 30° NNW 15:13:47 10° NNE daylight
11 Dec - 20:01:16 10° NNW 20:03:40 18° NNE 20:06:04 10° ENE visible
11 Dec - 21:37:09 10° WNW 21:40:24 57° SW 21:43:38 10° SE night (unlit)
